Regional Weather Roundup
Issued by NWS San Angelo, TX

Home | Current Version | Previous Version | Text Only | Print | Product List | Glossary On
Versions: 1 2 3 4 5 6 7 8 9 10 11 12 13 14 15 16 17 18 19 20 21 22 23 24 25 26 27 28 29 30 31 32 33 34 35 36 37 38 39 40 41 42 43 44 45 46 47 48 49 50
213
ASUS44 KSJT 201310
RWRSJT
WEST CENTRAL TEXAS REGIONAL WEATHER ROUNDUP
NATIONAL WEATHER SERVICE SAN ANGELO TX
700 AM CST MON NOV 20 2017

NOTE: "FAIR" INDICATES FEW OR NO CLOUDS BELOW 12,000 FEET WITH NO
SIGNIFICANT WEATHER AND/OR OBSTRUCTIONS TO VISIBILITY.

TXZ049-054-064>066-071>073-076>078-098-099-113-114-127-128-139-140-
154-155-168>170-201400
...LOCATIONS ACROSS WEST CENTRAL TEXAS...

CITY           SKY/WX    TMP DP  RH WIND       PRES   REMARKS
SAN ANGELO     CLEAR     33  26  75 S5        30.13S WCI  29
ABILENE        CLEAR     36  28  73 S9        30.12F WCI  29
DYESS AFB      CLEAR     37  28  72 CALM      30.15R
JUNCTION       CLEAR     31  27  85 VRB6      30.17R WCI  25
SWEETWATER     CLEAR     42  26  53 S12       30.12S WCI  35
BROWNWOOD      NOT AVBL
COLEMAN        CLOUDY    35  29  78 CALM      30.16S
SONORA         CLEAR     30  23  74 CALM      30.18S
OZONA          FAIR      30  23  74 N3        30.16R
BRADY          NOT AVBL
$$

TEXAS PANHANDLE/OKLAHOMA PANHANDLE

CITY           SKY/WX    TMP DP  RH WIND       PRES   REMARKS
AMARILLO       CLEAR     31  19  61 SW15      29.96F WCI  20
BORGER         CLEAR     38  18  44 SW12      29.94F WCI  30
CANADIAN       CLOUDY    37  20  52 SW12      29.95S WCI  29
DALHART        CLOUDY    23  15  71 W9        29.94S WCI  13
DUMAS          SUNNY     32  16  51 SW14      29.92F WCI  22
GUYMON         NOT AVBL
HEREFORD       CLOUDY    29  20  69 MISG      30.00S
PAMPA          CLOUDY    38  20  47 SW18      29.94F WCI  29
PERRYTON       CLEAR     34  19  55 S10       29.89F WCI  26
$$

SOUTHERN PANHANDLE/SOUTH PLAINS/ROLLING PLAINS

CITY           SKY/WX    TMP DP  RH WIND       PRES   REMARKS
LUBBOCK        CLOUDY    32  18  56 W9        30.04S WCI  24
SNYDER         CLEAR     32  25  73 S5        30.10S WCI  28
CHILDRESS      CLOUDY    34  23  64 S10       30.05F WCI  26
SEMINOLE       CLOUDY    32  22  68 W7        30.09R WCI  25
$$

PERMIAN BASIN

CITY           SKY/WX    TMP DP  RH WIND       PRES   REMARKS
MIDLAND        CLEAR     40  22  48 S5        30.08S WCI  37
ODESSA         CLEAR     42  24  49 SW8       30.08R WCI  37
WINK           CLEAR     30  22  72 CALM      30.08R
$$

FAR WEST/SOUTHWEST MOUNTAINS/TRANS PECOS

CITY           SKY/WX    TMP DP  RH WIND       PRES   REMARKS
ALPINE         CLOUDY    47  26  42 SW9       30.16S
DRYDEN           N/A     37  25  61 N6        30.10R WCI  32
EL PASO        PTCLDY    39  19  44 N7        30.13R WCI  34
FORT STOCKTON  CLOUDY    37  25  61 S8        30.09R WCI  31
GUADALUPE PASS CLOUDY    38  16  40 S13G20    30.12R WCI  30
MARFA          CLOUDY    25  17  72 CALM      30.15R
PECOS          SUNNY     31  22  68 W3        30.10S
$$

DALLAS/FORT WORTH METROPLEX

CITY           SKY/WX    TMP DP  RH WIND       PRES   REMARKS
DFW AIRPORT    CLOUDY    42  32  67 S8        30.17R WCI  37
FTW MEACHAM    CLOUDY    44  33  65 S6        30.18R
DAL-EXECUTIVE  PTCLDY    46  30  53 S6        30.19R
GRAND PRAIRIE  CLOUDY    42  30  62 S3        30.20R
ADDISON        PTCLDY    46  30  53 S7        30.19R
MESQUITE       SUNNY     36  32  87 CALM      30.21R
LANCASTER      CLOUDY    34  30  87 CALM      30.21R
$$

NORTH CENTRAL TEXAS

CITY           SKY/WX    TMP DP  RH WIND       PRES   REMARKS
SHRMAN/DENISON MOSUNNY   40  30  66 S6        30.20R WCI  36
GAINESVILLE    CLOUDY    37  28  71 CALM      30.19R
BRIDGEPORT     NOT AVBL
DENTON         CLOUDY    37  33  85 CALM      30.19R
WAXAHACHIE     CLOUDY    39  31  71 CALM      30.20S
GRANBURY       CLOUDY    35  31  86 CALM      30.20R
$$

WESTERN NORTH TEXAS

CITY           SKY/WX    TMP DP  RH WIND       PRES   REMARKS
WICHITA FALLS  CLOUDY    34  27  75 S8        30.13R WCI  27
VERNON         CLOUDY    33  23  67 S8        30.11S WCI  25
BRECKENRIDGE   SUNNY     42  29  60 S8        30.14R WCI  37
COMANCHE       CLOUDY    37  31  79 S9        30.17S WCI  30
$$

CENTRAL AND SOUTH CENTRAL TEXAS

CITY           SKY/WX    TMP DP  RH WIND       PRES   REMARKS
AUSTIN/BERGSTM CLOUDY    37  37 100 CALM      30.20R
WACO           PTCLDY    33  30  88 W3        30.21R
HILLSBORO      CLOUDY    40  31  71 CALM      30.20R HAZE
TEMPLE         CLOUDY    33  31  92 CALM      30.21R
KILLEEN-GRAY   CLOUDY    39  29  69 CALM      30.18R
FORT HOOD      CLOUDY    41  30  66 CALM      30.16R
GEORGETOWN     CLOUDY    36  32  85 CALM      30.22R
LAGO VISTA     FAIR      45  36  70 S3        30.20R
SAN MARCOS     CLEAR     37  32  82 NW6       30.21R WCI  32
NEW BRAUNFELS  CLOUDY    38  33  82 NW5       30.19R WCI  34
RANDOLPH AFB   PTCLDY    40  35  79 N6        30.19R WCI  36
SAN ANTONIO    PTCLDY    44  35  70 NW3       30.20R
STINSON        PTCLDY    42  37  82 CALM      30.18R
PLEASANTON     NOT AVBL
LA GRANGE      PTCLDY    39  38  96 CALM      30.18S
GIDDINGS       MOSUNNY   39  37  93 CALM      30.20S
$$

EAST TEXAS

CITY           SKY/WX    TMP DP  RH WIND       PRES   REMARKS
PARIS          CLOUDY    34  30  85 SE7       30.20R WCI  28
CLARKSVILLE    NOT AVBL
TYLER          PTCLDY    38  33  82 S3        30.21R
LONGVIEW       NOT AVBL
PALESTINE      CLOUDY    40  33  75 CALM      30.23R
NACOGDOCHES    CLOUDY    31  29  92 CALM      30.24R
$$

TEXAS HILL COUNTRY AND EDWARDS PLATEAU

CITY           SKY/WX    TMP DP  RH WIND       PRES   REMARKS
LLANO          SUNNY     32  30  93 CALM      30.22F
HORSESHOE BAY  FAIR      34  32  93 CALM      30.19R
KERRVILLE      CLOUDY    32  31  95 CALM      30.18S
FREDERICKSBRG  CLEAR     32  29  87 CALM      30.18S
ROCKSPRINGS    NOT AVBL
HONDO          CLEAR     39  31  72 NE6       30.18R WCI  35
UVALDE         MOSUNNY   38  32  77 NE5       30.18S WCI  35
DEL RIO        CLEAR     41  32  70 E5        30.14R WCI  38
$$

SOUTHEAST TEXAS

CITY           SKY/WX    TMP DP  RH WIND       PRES   REMARKS
COLLEGE STN    CLOUDY    45  35  68 SE3       30.21R
CALDWELL       MOSUNNY   38  36  93 CALM      30.21S
CROCKETT         N/A    N/A N/A N/A MISG        N/A
BRENHAM        PTCLDY    41  39  94 CALM      30.22R
HUNTSVILLE     PTCLDY    38  35  89 CALM      30.21S
CONROE         PTCLDY    36  36 100 CALM      30.22S
HOUSTON BUSH   MOCLDY    44  39  82 NW3       30.22R
HOUSTON HOBBY  CLOUDY    49  41  74 E6        30.21R
PERLAND        PTCLDY    49  44  83 NE5       30.22S
WHARTON        MOSUNNY   45  38  78 CALM      30.21S
$$

THE UPPER TEXAS COAST

CITY           SKY/WX    TMP DP  RH WIND       PRES   REMARKS
ORANGE         MOSUNNY   37  37 100 CALM      30.25R
PORT ARTHUR    CLOUDY    42  36  79 CALM      30.23R
GALVESTON      PTCLDY    58  46  64 NE12      30.21S
ANGLETON       CLOUDY    49  41  74 N6        30.20R
BAY CITY       MOSUNNY   48  42  77 NE3       30.19S
$$

TEXAS COASTAL BEND, RIO GRANDE PLAINS DEEP SOUTH TEXAS

CITY           SKY/WX    TMP DP  RH WIND       PRES   REMARKS
VICTORIA       PTCLDY    40  37  89 NE3       30.20R
BEEVILLE       FAIR      46  38  72 NE5       30.19R
ROCKPORT       CLOUDY    56  48  74 NE8       30.18R
PORT ARANSAS   NOT AVBL
PORT LAVACA    MOSUNNY   50  40  67 NE7       30.20R
CORPUS CHRISTI CLOUDY    50  42  74 N6        30.19R
KINGSVILLE NAS MOCLDY    50  41  71 NE7       30.16F THUNDER
COTULLA        CLEAR     45  36  70 E3        30.18R
LAREDO         CLEAR     48  40  73 MISG      30.18R
BROWNSVILLE    CLOUDY    60  46  59 N7        30.14R
PORT ISABEL    CLOUDY    59  47  64 NW6       30.13S
HEBBRONVILLE   PTSUNNY   46  43  89 CALM      30.17R
MCALLEN        CLOUDY    58  44  60 N9        30.17R
WESLACO        MOCLDY    55  44  68 NE5       30.15R
FALFURRIAS     NOT AVBL
EDINBURG       CLOUDY    55  47  74 NW5       30.19R THUNDER
$$




USA.gov is the U.S. government's official web portal to all federal, state and local government web resources and services.